Location: Blangy-Tronville
(49.8790°N, 2.4226°E)
Time: 06:23:52
(UTC+00:00)

USA 215 - Pass Details

Date: 18 November 2025
Orbit: 1101 x 1106 km, 123.0° (Epoch: 02 December)

Event Time Altitude Azimuth Distance (km) Brightness Sun altitude
Rises 17:46:21 0° 142° (SE) 3,911 5.9 -16.4°
Reaches altitude 10° 17:48:54 10° 147° (SSE) 2,957 5.3 -16.8°
Maximum altitude 17:55:15 52° 223° (SW) 1,355 4.0 -17.8°
Drops below altitude 10° 18:01:37 10° 298° (WNW) 2,972 6.3 -18.8°
Sets 18:04:12 0° 304° (WNW) 3,933 6.9 -19.3°
